Showing default

GALILEO 5 (261), 40128

Orbit data source: Space-Track

GALILEO 5 (261), 40128 is a payload satellite owned by GNSS Agency (ESA) in MEO that was launched on Fri, 22 Aug 2014 UTC via a SOYUZ-ST-B launch vehicle from the French Guiana (FRGUI). Payload-class satellites include a variety of spacecraft equipped with specific instruments for various scientific and technological missions. These include communications satellites like Starlink; space stations such as the ISS; scientific satellites like the Hubble; Earth observation satellites from companies like Planet Labs, Umbra, and HawkEye 360; GPS; miniature CubeSats for education and research; and military/defense satellites.

Loading next visibility...
Identifier
40128, 2014-050A
Orbit
MEO
Country
Flag of ESAESA
Related business
Manufacturer
OHB
Mission
On reserve Civil Navigation
Bus & Motor
GALILEOSAT, AOCS
Mass
733 kg wet, 700 kg dry
Launch date (UTC)
2014-08-22 (11 years ago)
Launch vehicle
SOYUZ-ST-B
Launch site
French Guiana (FRGUI)
Object type
Payload
Rocket body
Debris
Shape & HBR
Box + 2 Pan, 7.3 m
Radar Cross Section
9.223 m², Large (>1 m²)

Expand to show TLE details & history
Last TLE update: 3 days ago

TLE from 3 days ago
0 GALILEO 5 (261)
1 40128U 14050A   26034.74850165 -.00000040  00000-0  00000-0 0  9991
2 40128  49.0171 278.8976 1653746 174.2595 187.9403  1.85519844 75842
Epoch: 2026-02-03T17:57Z
TLE epoch observation values (Epoch: 2026-02-03T17:57:50.542Z)
Latitude
0.00003°
Longitude
-124.46256°
Altitude
26,199.337 km
Speed
3.198 km/s
True Right ascension
18h 35m 41s
True Declination
0° 00' 00"
Sunlit
Object was in daylight at epoch
Visualization orbit readout
Latitude
Unknown
Longitude
Unknown
Altitude
Unknown
Speed
Unknown
Apparent Right ascension
Unknown
Apparent Declination
Unknown
Sunlit
N/A
Visualization observer readout
Local Sidereal Time
16:05:40
Azimuth
Unknown
Elevation
Unknown
Doppler factor
Unknown
Orbital elements
Apogee altitude
26,226.38 km
Perigee altitude
16,972.774 km
Semi-major axis
27,977.714 km
Eccentricity
0.16537
Inclination
49.0171°
RAAN
278.8976°
Arg. of periapsis
174.2595°
True anomaly
185.76999°
Mean anomaly
187.9403°
Eccentric anomaly
186.8158°
Mean motion
0.46379 °/min
Orbital period
776.21 mins
BSTAR
0
Loading maneuver chart data...
Computing Atmospheric mass density...
Loading historical data...
Loading historical data...
Loading historical data...
Loading historical data...
Loading historical data...
Loading historical data...
Loading historical data...
Other satellites on launch #50 in the year 2014 (2014-08-22 UTC)

Documentation

Showing up to 5 results
|